When you browse on this site, cookies collect data to enhance your experience and personalize the content and advertising you see.
Visit our Privacy Policy to learn more. By continuing to use the site, you agree to this use of cookies and data.

Previsão horária em 1-e Maya

Hoje, 22 Setembro, Terça-feira

Tempo Temperatura Precipitação Vento Pressão Humidade
00:00 +10°C° 0 mm 3 m/s 750 mmHg 89%
01:00 +9°C° 0 mm 3 m/s 750 mmHg 90%
02:00 +9°C° 0 mm 3 m/s 750 mmHg 92%
03:00 +9°C° 0 mm 2 m/s 750 mmHg 93%
04:00 +9°C° 0 mm 3 m/s 750 mmHg 93%
05:00 +9°C° 0 mm 3 m/s 750 mmHg 94%
06:00 +9°C° 0 mm 3 m/s 750 mmHg 94%
07:00 +10°C° 0 mm 4 m/s 750 mmHg 89%
08:00 +12°C° 0 mm 4 m/s 750 mmHg 83%
09:00 +13°C° 0 mm 5 m/s 750 mmHg 78%
10:00 +15°C° 0 mm 5 m/s 750 mmHg 73%
11:00 +16°C° 0 mm 6 m/s 749 mmHg 68%
12:00 +19°C° 0 mm 6 m/s 749 mmHg 62%
13:00 +19°C° 0 mm 6 m/s 749 mmHg 60%
14:00 +20°C° 0 mm 6 m/s 749 mmHg 57%
15:00 +21°C° 0 mm 6 m/s 749 mmHg 55%
16:00 +19°C° 0 mm 6 m/s 749 mmHg 59%
17:00 +17°C° 0 mm 5 m/s 749 mmHg 64%
18:00 +16°C° 0 mm 5 m/s 748 mmHg 68%
19:00 +15°C° 0 mm 4 m/s 749 mmHg 71%
20:00 +14°C° 0 mm 4 m/s 749 mmHg 73%
21:00 +14°C° 0 mm 4 m/s 750 mmHg 75%
22:00 +13°C° 0 mm 4 m/s 750 mmHg 77%
23:00 +13°C° 0 mm 4 m/s 749 mmHg 79%

Amanhã, 23 Setembro, Quarta-feira

Tempo Temperatura Precipitação Vento Pressão Humidade
00:00 +12°C° 0 mm 4 m/s 749 mmHg 81%
01:00 +11°C° 0 mm 3 m/s 750 mmHg 85%
02:00 +11°C° 0 mm 3 m/s 750 mmHg 88%
03:00 +10°C° 0 mm 3 m/s 751 mmHg 92%
04:00 +10°C° 0 mm 2 m/s 751 mmHg 94%
05:00 +9°C° 0 mm 2 m/s 751 mmHg 95%
06:00 +9°C° 0 mm 2 m/s 751 mmHg 96%
07:00 +10°C° 0 mm 2 m/s 752 mmHg 90%
08:00 +13°C° 0 mm 2 m/s 752 mmHg 84%
09:00 +15°C° 0 mm 2 m/s 752 mmHg 78%
10:00 +16°C° 0 mm 2 m/s 752 mmHg 69%
11:00 +18°C° 0 mm 2 m/s 752 mmHg 60%
12:00 +20°C° 0 mm 2 m/s 752 mmHg 51%
13:00 +20°C° 0 mm 2 m/s 752 mmHg 51%
14:00 +20°C° 0 mm 2 m/s 752 mmHg 51%
15:00 +21°C° 0 mm 2 m/s 752 mmHg 51%
16:00 +20°C° 0 mm 1 m/s 752 mmHg 58%
17:00 +19°C° 0 mm 1 m/s 752 mmHg 66%
18:00 +16°C° 0 mm 1 m/s 752 mmHg 73%
19:00 +15°C° 0 mm 1 m/s 752 mmHg 77%
20:00 +15°C° 0 mm 1 m/s 752 mmHg 81%
21:00 +14°C° 0 mm 1 m/s 752 mmHg 84%
22:00 +14°C° 0 mm 1 m/s 752 mmHg 86%
23:00 +13°C° 0 mm 1 m/s 752 mmHg 88%

Depois de amanhã, 24 Setembro, Quinta-feira

Tempo Temperatura Precipitação Vento Pressão Humidade
00:00 +13°C° 0 mm 1 m/s 753 mmHg 89%
01:00 +13°C° 0 mm 1 m/s 753 mmHg 90%
02:00 +12°C° 0 mm 1 m/s 753 mmHg 92%
03:00 +12°C° 0 mm 1 m/s 753 mmHg 93%
04:00 +12°C° 0 mm 1 m/s 753 mmHg 93%
05:00 +12°C° 0 mm 1 m/s 753 mmHg 93%
06:00 +11°C° 0 mm 1 m/s 753 mmHg 94%
07:00 +13°C° 0 mm 1 m/s 753 mmHg 88%
08:00 +15°C° 0 mm 1 m/s 754 mmHg 81%
09:00 +16°C° 0 mm 1 m/s 754 mmHg 75%
10:00 +18°C° 0 mm 2 m/s 754 mmHg 68%
11:00 +20°C° 0 mm 2 m/s 754 mmHg 62%
12:00 +21°C° 0 mm 2 m/s 754 mmHg 55%
13:00 +23°C° 0 mm 2 m/s 754 mmHg 54%
14:00 +23°C° 0 mm 2 m/s 754 mmHg 52%
15:00 +23°C° 0 mm 2 m/s 754 mmHg 51%
16:00 +22°C° 0 mm 1 m/s 754 mmHg 57%
17:00 +20°C° 0 mm 1 m/s 754 mmHg 63%
18:00 +18°C° 0 mm 1 m/s 754 mmHg 70%
19:00 +16°C° 0 mm 1 m/s 754 mmHg 72%
20:00 +16°C° 0 mm 1 m/s 754 mmHg 75%
21:00 +15°C° 0 mm 1 m/s 754 mmHg 78%
22:00 +14°C° 0 mm 1 m/s 754 mmHg 78%
23:00 +14°C° 0 mm 1 m/s 755 mmHg 79%

25 Setembro, Sexta-feira

Tempo Temperatura Precipitação Vento Pressão Humidade
00:00 +13°C° 0 mm 1 m/s 755 mmHg 80%
01:00 +13°C° 0 mm 1 m/s 755 mmHg 81%
02:00 +12°C° 0 mm 1 m/s 755 mmHg 81%
03:00 +12°C° 0 mm 1 m/s 755 mmHg 82%
04:00 +12°C° 0 mm 1 m/s 755 mmHg 83%
05:00 +12°C° 0 mm 1 m/s 755 mmHg 83%
06:00 +11°C° 0 mm 1 m/s 755 mmHg 84%
07:00 +13°C° 0 mm 2 m/s 755 mmHg 78%
08:00 +14°C° 0 mm 2 m/s 755 mmHg 73%
09:00 +16°C° 0 mm 2 m/s 755 mmHg 67%
10:00 +18°C° 0 mm 2 m/s 755 mmHg 62%
11:00 +19°C° 0 mm 2 m/s 755 mmHg 57%
12:00 +21°C° 0 mm 2 m/s 755 mmHg 52%
13:00 +22°C° 0 mm 3 m/s 755 mmHg 51%
14:00 +22°C° 0 mm 3 m/s 755 mmHg 49%
15:00 +24°C° 0 mm 3 m/s 755 mmHg 48%
16:00 +21°C° 0 mm 3 m/s 755 mmHg 55%
17:00 +19°C° 0 mm 2 m/s 754 mmHg 62%
18:00 +18°C° 0 mm 2 m/s 754 mmHg 69%
19:00 +17°C° 0 mm 2 m/s 754 mmHg 71%
20:00 +16°C° 0 mm 2 m/s 755 mmHg 73%
21:00 +15°C° 0 mm 2 m/s 755 mmHg 75%
22:00 +14°C° 0 mm 2 m/s 755 mmHg 75%
23:00 +14°C° 0 mm 2 m/s 755 mmHg 74%

26 Setembro, Sábado

Tempo Temperatura Precipitação Vento Pressão Humidade
00:00 +14°C° 0 mm 2 m/s 755 mmHg 74%
01:00 +13°C° 0 mm 2 m/s 755 mmHg 72%
02:00 +12°C° 0 mm 2 m/s 755 mmHg 70%
03:00 +12°C° 0 mm 2 m/s 755 mmHg 68%
04:00 +10°C° 0 mm 2 m/s 755 mmHg 68%
05:00 +10°C° 0 mm 2 m/s 755 mmHg 67%
06:00 +9°C° 0 mm 2 m/s 756 mmHg 66%
07:00 +12°C° 0 mm 2 m/s 756 mmHg 62%
08:00 +12°C° 0 mm 3 m/s 756 mmHg 57%
09:00 +13°C° 0 mm 3 m/s 756 mmHg 53%
10:00 +16°C° 0 mm 3 m/s 756 mmHg 49%
11:00 +18°C° 0 mm 3 m/s 756 mmHg 45%
12:00 +19°C° 0 mm 4 m/s 756 mmHg 41%
13:00 +20°C° 0 mm 4 m/s 756 mmHg 41%
14:00 +20°C° 0 mm 4 m/s 756 mmHg 41%
15:00 +21°C° 0 mm 4 m/s 756 mmHg 41%
16:00 +19°C° 0 mm 3 m/s 756 mmHg 48%
17:00 +17°C° 0 mm 3 m/s 756 mmHg 54%
18:00 +16°C° 0 mm 3 m/s 755 mmHg 61%
19:00 +14°C° 0 mm 3 m/s 756 mmHg 64%
20:00 +14°C° 0 mm 3 m/s 756 mmHg 67%
21:00 +13°C° 0 mm 3 m/s 756 mmHg 70%
22:00 +13°C° 0 mm 3 m/s 756 mmHg 69%
23:00 +13°C° 0 mm 3 m/s 756 mmHg 68%

27 Setembro, Domingo

Tempo Temperatura Precipitação Vento Pressão Humidade
00:00 +13°C° 0 mm 3 m/s 757 mmHg 67%
01:00 +12°C° 0 mm 3 m/s 757 mmHg 64%
02:00 +12°C° 0 mm 3 m/s 757 mmHg 61%
03:00 +12°C° 0 mm 3 m/s 757 mmHg 58%
04:00 +11°C° 0 mm 3 m/s 757 mmHg 59%
05:00 +10°C° 0 mm 3 m/s 757 mmHg 59%
06:00 +10°C° 0 mm 3 m/s 757 mmHg 59%
07:00 +11°C° 0 mm 3 m/s 758 mmHg 57%
08:00 +12°C° 0 mm 3 m/s 758 mmHg 55%
09:00 +13°C° 0 mm 3 m/s 758 mmHg 52%
10:00 +15°C° 0 mm 4 m/s 758 mmHg 48%
11:00 +17°C° 0 mm 4 m/s 758 mmHg 44%
12:00 +19°C° 0 mm 4 m/s 759 mmHg 40%
13:00 +19°C° 0 mm 4 m/s 758 mmHg 40%
14:00 +19°C° 0 mm 4 m/s 758 mmHg 39%
15:00 +19°C° 0 mm 5 m/s 758 mmHg 39%
16:00 +18°C° 0 mm 4 m/s 758 mmHg 44%
17:00 +15°C° 0 mm 4 m/s 758 mmHg 50%
18:00 +14°C° 0 mm 3 m/s 758 mmHg 55%
19:00 +13°C° 0 mm 3 m/s 758 mmHg 55%
20:00 +13°C° 0 mm 3 m/s 758 mmHg 56%
21:00 +12°C° 0 mm 4 m/s 758 mmHg 56%
22:00 +12°C° 0 mm 3 m/s 758 mmHg 56%
23:00 +11°C° 0 mm 3 m/s 758 mmHg 56%
Mostrar mais